Wetbulb
63.60 59.69 58.87 58.86 49.20 48.94 47.31 54.18 59.99 59.65 59.32 60.89 64.38 62.64 59.94 61.32 60.54 53.74 65.97 71.69 73.23 74.32 76.65 77.38 78.07 78.06 77.73 77.46 77.11 76.98 77.38 77.88 77.65 77.45 77.53 77.43 77.18 76.75 76.22 75.62 75.12 74.47 73.42 73.60 73.73 74.18 74.43 74.21 73.80
61.14 60.51 57.78 53.12 44.74 41.20 45.68 55.77 57.42 59.43 58.71 62.87 64.20 62.82 61.55 60.57 65.56 66.53 66.93 71.98 73.07 74.75 76.01 76.85 78.11 77.96 77.96 77.56 77.00 76.68 77.46 77.88 77.68 77.55 77.53 77.43 76.93 76.30 75.87 75.11 74.57 74.06 73.63 73.92 74.46 74.83 74.86 74.53 74.43
61.89 59.57 50.40 45.42 43.18 43.89 45.25 56.81 57.66 59.88 57.87 57.38 62.87 65.44 63.57 62.29 67.37 67.55 69.90 72.16 73.11 73.21 75.67 77.00 78.11 77.89 77.91 77.58 76.95 76.83 77.53 77.72 77.55 77.61 77.45 77.17 76.65 76.00 75.34 74.58 73.91 74.22 74.35 75.06 75.37 74.92 74.87 74.66 74.75
56.34 51.86 48.83 41.28 40.83 46.52 48.09 56.84 59.75 58.85 56.68 57.14 63.13 63.64 65.59 67.83 68.79 71.08 71.26 72.63 71.47 72.50 75.30 77.71 77.91 77.89 77.99 77.58 77.06 77.33 77.63 77.75 77.53 77.40 77.22 76.95 76.38 75.82 74.94 74.27 73.58 74.48 75.22 75.12 74.12 73.84 73.50 73.55 73.28
54.70 47.98 40.76 40.50 42.27 47.08 50.38 57.76 57.55 56.71 56.41 55.98 62.39 63.49 62.92 66.31 71.23 72.21 71.15 71.85 70.84 73.15 75.46 76.89 77.63 77.91 77.91 77.56 77.26 77.48 77.42 77.19 77.22 77.27 77.05 76.57 76.17 75.57 74.74 73.79 73.23 74.54 74.78 74.32 73.17 72.34 71.85 71.87 72.20
48.04 46.39 38.94 37.71 42.34 47.32 49.71 58.08 58.21 55.65 56.10 57.00 66.08 65.71 66.06 70.51 70.13 70.28 71.04 70.63 71.96 73.63 75.09 76.25 77.66 77.61 77.53 77.46 77.25 77.12 77.02 76.99 76.91 76.92 76.70 76.39 76.07 75.27 74.49 73.51 73.18 74.72 74.77 74.21 73.40 72.52 71.93 72.06 72.17
44.31 41.98 40.25 41.80 43.97 45.85 48.47 54.13 54.38 54.77 55.72 53.46 63.84 63.08 65.34 68.87 69.51 71.44 70.30 70.76 74.06 73.70 73.99 75.20 76.07 76.70 77.71 77.20 76.97 76.82 76.64 76.76 76.58 76.43 76.31 76.34 75.84 75.20 74.49 73.50 73.07 74.25 74.81 73.73 72.99 72.41 72.34 72.51 72.39
48.34 44.02 41.52 42.31 43.42 43.97 48.85 48.66 50.09 52.13 53.67 58.05 63.61 62.31 60.97 66.40 69.23 70.78 71.78 72.79 73.18 72.89 73.15 74.30 75.20 75.78 75.68 76.01 77.10 76.67 76.49 76.49 76.48 76.36 76.21 75.89 75.84 75.32 74.70 73.22 72.98 74.00 74.24 73.59 73.18 72.99 72.95 72.99 72.66
50.10 40.90 38.56 42.28 43.84 45.61 48.79 47.26 50.80 53.11 53.28 56.46 66.61 65.58 66.81 67.38 68.35 69.29 69.22 72.06 72.12 72.34 71.99 72.48 73.95 74.33 74.64 75.13 75.84 76.45 76.55 76.52 76.39 76.21 76.16 75.01 72.79 72.92 72.61 73.08 72.91 74.46 74.57 73.83 73.75 73.68 73.38 73.01 72.65
45.44 40.19 42.60 47.85 47.90 46.41 48.14 48.59 50.03 50.82 51.07 52.17 64.43 64.28 65.18 66.22 64.91 66.29 67.83 69.41 70.32 70.32 70.81 71.74 72.01 72.73 72.88 74.88 74.33 73.41 74.00 74.32 74.20 73.78 73.86 72.32 71.28 70.40 71.88 72.43 74.00 74.47 74.69 74.03 73.94 74.06 73.74 72.68 66.91
45.83 42.87 47.41 49.51 49.71 49.91 48.80 49.19 50.04 49.63 47.20 50.52 60.76 62.47 63.56 64.06 63.10 67.34 68.84 67.41 70.01 70.50 70.45 70.79 70.97 71.04 70.42 71.46 72.75 70.80 71.21 71.68 71.59 71.48 72.53 71.33 71.29 70.14 71.10 70.29 71.50 71.22 73.35 70.10 70.85 69.87 69.00 64.69 63.18
42.93 47.16 48.17 49.81 50.64 48.11 47.95 49.55 49.33 48.67 49.26 52.98 65.68 65.61 64.22 63.31 64.54 69.07 68.92 68.35 68.36 69.54 69.43 70.30 69.86 69.36 68.45 71.30 70.27 69.96 70.62 70.14 70.42 70.49 71.57 70.71 69.08 69.27 69.01 69.43 69.33 69.13 67.78 68.06 67.10 66.91 65.23 62.63 61.80
44.23 46.71 48.40 49.29 48.69 47.07 49.55 48.26 48.49 48.71 52.33 53.52 54.06 67.49 66.09 66.61 67.91 68.89 69.54 69.45 68.07 67.21 68.58 69.24 69.75 68.88 68.27 70.74 69.45 69.88 69.80 70.16 70.38 70.08 71.21 71.76 70.46 68.73 68.58 69.05 69.44 68.56 67.73 67.78 66.01 65.39 62.12 61.19 62.32
47.02 46.80 47.19 47.46 47.13 46.79 46.67 47.83 48.01 49.97 52.19 51.95 52.32 52.09 54.86 62.41 67.14 67.69 68.09 67.20 66.38 68.03 68.10 69.36 69.77 69.31 69.81 70.70 69.73 68.97 69.30 69.78 69.77 70.42 70.95 71.20 70.68 69.68 68.68 68.28 69.12 68.33 69.17 68.55 65.90 63.65 61.99 62.79 61.32
47.45 44.07 46.30 47.08 46.58 45.75 47.52 45.12 46.20 50.17 51.43 50.11 51.01 51.88 52.56 55.19 64.73 65.65 67.98 66.88 66.60 66.65 66.91 67.20 69.71 70.14 69.77 71.27 71.43 69.35 68.60 70.11 69.64 70.56 70.71 71.13 70.89 69.80 68.47 68.52 67.43 68.75 70.71 67.51 65.52 63.34 61.54 59.70 61.43
44.18 42.77 38.87 45.34 47.35 47.79 46.00 41.06 48.05 50.33 49.87 49.83 51.11 51.86 53.34 59.20 64.84 66.48 67.43 67.49 67.80 66.64 67.90 68.02 69.39 70.40 70.21 71.71 72.36 72.35 70.80 69.62 70.44 70.75 71.54 71.23 71.36 70.92 70.34 67.87 69.36 69.84 71.36 68.65 65.93 64.52 63.56 60.22 60.69
40.58 37.51 40.01 44.13 48.08 47.50 46.07 41.99 48.06 50.62 49.24 48.93 49.99 51.58 52.53 59.69 62.96 65.27 63.68 63.05 64.75 68.94 69.68 69.76 70.45 71.20 71.59 71.19 71.71 71.02 71.97 72.14 70.58 69.82 71.72 71.56 71.37 70.83 70.05 67.71 67.85 68.92 71.64 70.27 67.14 65.32 64.98 62.37 59.15
37.58 38.40 40.58 42.85 47.34 46.67 44.55 43.49 47.85 49.83 49.45 49.73 50.47 51.01 55.15 60.24 60.99 63.31 63.47 63.17 64.88 66.56 65.79 72.69 70.98 70.09 71.98 72.79 72.31 71.63 71.35 72.38 71.86 71.41 70.84 71.27 71.31 70.55 69.75 69.60 68.12 67.92 68.31 70.36 68.52 66.38 65.44 63.04 61.73
43.98 42.65 42.20 45.68 48.86 46.61 44.34 45.15 46.86 48.46 47.02 48.64 49.94 50.43 58.34 59.53 61.36 63.49 65.74 66.81 67.21 66.94 66.88 71.80 72.82 72.54 71.96 72.29 71.55 70.97 70.05 71.05 71.79 71.24 72.16 71.33 70.19 70.55 68.97 68.28 68.39 69.23 68.07 67.75 69.85 65.72 64.51 63.48 61.12
44.18 42.34 42.57 46.18 48.69 45.69 45.02 44.17 46.85 47.87 47.30 48.95 50.24 50.26 57.96 57.98 60.17 63.28 65.65 66.52 66.42 66.86 66.90 68.87 73.00 74.00 73.02 73.11 72.40 72.16 72.16 71.87 71.81 72.23 71.13 71.71 70.39 70.36 69.21 67.59 67.22 67.76 67.89 69.82 67.37 65.43 64.86 63.89 63.44
45.26 42.96 43.40 43.37 46.83 46.28 44.61 42.02 44.47 48.03 48.82 48.52 51.89 54.39 58.07 58.80 59.31 63.13 64.83 64.90 67.88 70.34 70.84 70.32 67.55 72.33 73.48 73.95 73.69 73.51 73.54 73.55 71.61 71.41 70.87 70.51 70.97 70.77 70.26 68.89 67.87 68.08 67.22 68.38 68.48 66.75 66.04 63.06 61.74
41.43 47.60 47.20 45.54 42.49 37.85 43.38 34.95 41.72 44.69 46.20 47.76 52.45 55.29 56.70 60.62 63.01 63.68 63.88 65.16 67.73 68.53 68.68 69.69 70.46 71.06 73.45 73.49 72.51 72.66 71.76 70.01 71.04 71.19 70.34 70.22 70.65 69.80 69.61 69.55 68.51 67.73 69.44 68.28 69.61 67.99 66.34 65.68 63.32
45.45 48.28 46.25 45.57 41.80 38.34 41.75 35.34 39.56 44.54 45.03 45.72 51.33 53.63 56.88 61.37 61.63 61.67 62.08 63.76 66.23 67.61 66.40 67.41 68.35 68.67 70.42 70.74 71.97 71.87 71.71 71.69 71.66 72.11 69.96 68.67 70.04 69.65 69.62 68.99 69.28 67.66 68.28 68.64 69.93 67.96 67.05 66.52 64.28
50.69 48.17 46.59 42.95 39.34 34.19 38.61 38.19 38.81 42.23 44.76 48.68 51.63 57.03 59.69 60.21 60.95 61.48 62.08 62.28 62.58 63.45 62.87 64.47 64.68 64.41 67.49 68.99 69.91 69.89 68.81 69.75 70.66 69.97 71.28 69.66 69.29 69.23 69.77 69.72 68.69 68.88 68.57 68.88 69.74 68.61 67.95 67.49 65.64
47.56 41.61 36.81 34.76 31.56 31.83 41.25 38.59 40.53 46.89 48.28 51.47 53.50 56.49 57.99 59.19 59.65 60.11 60.15 59.88 59.50 59.71 60.75 61.78 61.98 63.61 64.44 66.32 67.61 69.09 68.17 67.48 68.60 68.63 69.08 70.22 69.30 69.38 69.41 69.58 68.71 69.18 69.60 69.65 70.60 68.77 68.24 67.17 66.36
44.69 40.33 36.53 29.13 30.73 34.66 41.83 39.26 45.33 50.62 49.63 52.24 50.20 55.41 55.40 54.11 56.00 58.57 58.90 59.15 58.92 60.16 60.84 60.93 60.50 61.14 62.56 64.83 64.94 67.44 68.62 67.77 67.25 66.76 67.99 69.76 69.30 70.95 70.81 70.26 69.19 68.43 68.34 68.97 69.14 68.96 67.57 67.32 66.38
44.89 39.25 43.86 37.01 37.83 33.55 37.04 43.30 50.43 50.73 49.32 49.70 49.51 49.73 51.96 53.69 55.30 54.24 56.52 58.19 58.11 58.76 60.36 61.21 60.63 60.47 61.42 61.62 60.85 63.28 66.73 67.44 67.79 67.70 67.55 68.78 68.45 69.91 70.78 70.51 68.68 68.75 69.44 69.31 68.98 67.48 66.69 65.76 65.49
42.73 46.77 37.09 37.45 29.63 26.65 34.32 40.77 41.80 47.24 46.47 48.82 48.35 49.18 49.99 50.34 52.99 53.59 54.39 54.25 56.00 55.08 55.14 55.54 55.92 59.78 60.19 61.50 61.06 61.43 61.50 63.40 65.34 67.03 66.27 66.96 66.80 66.92 67.50 68.40 69.63 70.08 70.54 70.21 68.64 67.14 67.01 66.49 65.68
43.40 41.02 41.58 39.52 39.07 33.14 29.14 37.58 48.25 47.53 48.42 48.46 49.24 49.86 50.17 50.23 51.06 51.64 51.82 52.24 51.48 51.39 52.40 52.88 53.35 54.48 55.06 56.15 59.77 59.96 60.33 62.32 62.50 62.70 64.60 65.82 66.34 67.43 67.14 67.18 67.84 68.56 68.64 68.26 67.64 67.82 67.76 67.38 66.65
46.28 42.43 42.19 35.77 34.36 39.09 35.39 37.10 49.43 49.54 49.24 48.98 48.96 50.89 50.97 51.18 51.26 51.86 50.99 49.77 50.22 50.02 50.52 50.66 51.50 52.69 53.68 55.13 54.42 55.58 59.38 59.73 59.15 59.31 60.64 63.80 64.61 64.60 66.46 66.01 65.29 66.60 68.53 67.50 67.21 67.03 67.54 65.54 64.87
MSLP
1009.28 1008.98 1009.56 1009.97 1010.62 1009.90 1009.66 1009.23 1008.62 1005.33 1003.87 1003.62 1004.31 1005.50 1008.10 1008.60 1009.29 1009.32 1008.19 1008.35 1009.49 1010.41 1010.93 1011.29 1011.50 1012.10 1012.46 1012.68 1012.96 1013.42 1013.90 1014.29 1014.78 1015.28 1015.63 1015.92 1016.12 1016.27 1016.45 1016.55 1016.59 1016.67 1016.77 1016.81 1016.82 1016.95 1017.05 1017.09 1017.08
1009.06 1008.88 1008.77 1009.34 1010.02 1009.99 1008.72 1006.63 1006.48 1005.25 1003.23 1003.53 1004.82 1006.19 1007.84 1009.34 1009.48 1009.68 1008.75 1009.47 1009.27 1010.22 1010.64 1011.20 1011.51 1012.10 1012.58 1012.93 1013.26 1013.55 1013.96 1014.40 1014.73 1015.10 1015.62 1016.01 1016.21 1016.41 1016.62 1016.72 1016.82 1016.88 1016.91 1016.95 1016.98 1017.00 1017.06 1017.10 1017.06
1009.14 1009.16 1009.58 1009.29 1009.17 1008.68 1007.66 1005.61 1004.23 1003.61 1002.38 1002.63 1004.94 1006.35 1008.06 1009.00 1008.19 1008.54 1007.99 1009.30 1009.61 1010.40 1010.66 1010.97 1011.29 1011.85 1012.61 1013.02 1013.46 1013.85 1014.20 1014.56 1014.92 1015.21 1015.53 1015.92 1016.19 1016.37 1016.60 1016.82 1016.95 1016.99 1017.02 1017.05 1017.05 1017.05 1017.04 1017.05 1017.01
1009.14 1009.15 1009.27 1009.15 1009.13 1006.68 1005.89 1004.14 1002.81 1002.49 1002.30 1002.36 1004.46 1006.43 1008.65 1008.33 1006.91 1007.35 1008.27 1009.00 1009.58 1010.61 1010.78 1010.97 1011.47 1011.83 1012.30 1013.01 1013.46 1013.87 1014.28 1014.68 1015.02 1015.34 1015.63 1015.94 1016.24 1016.46 1016.66 1016.87 1017.01 1017.06 1017.06 1017.11 1017.14 1017.16 1017.15 1017.12 1017.02
1009.27 1009.38 1009.71 1009.22 1008.06 1006.02 1004.15 1003.06 1002.46 1002.30 1002.37 1002.50 1003.67 1006.82 1008.63 1009.25 1008.51 1007.74 1008.22 1008.38 1009.26 1010.58 1011.11 1011.20 1011.29 1011.70 1012.30 1012.87 1013.39 1013.81 1014.20 1014.66 1015.07 1015.40 1015.63 1015.94 1016.24 1016.56 1016.78 1016.94 1017.02 1017.06 1017.09 1017.14 1017.19 1017.18 1017.18 1017.17 1017.06
1009.67 1009.46 1009.95 1009.30 1007.43 1005.39 1003.24 1002.28 1002.09 1002.09 1002.18 1003.35 1004.23 1006.34 1009.04 1009.84 1009.28 1008.61 1007.91 1008.01 1008.69 1010.16 1010.95 1011.38 1011.67 1011.69 1012.15 1012.68 1013.24 1013.70 1014.14 1014.55 1015.03 1015.45 1015.69 1015.90 1016.19 1016.46 1016.70 1016.88 1016.99 1017.05 1017.10 1017.12 1017.17 1017.18 1017.13 1017.04 1016.91
1009.55 1010.04 1009.87 1008.86 1007.44 1005.34 1003.36 1002.03 1002.00 1001.79 1001.86 1002.99 1004.21 1006.47 1008.48 1008.96 1006.91 1007.57 1007.86 1008.12 1008.76 1009.66 1010.76 1011.43 1011.75 1012.07 1012.34 1012.67 1013.09 1013.56 1014.02 1014.40 1014.88 1015.33 1015.56 1015.78 1016.08 1016.38 1016.60 1016.76 1016.88 1016.96 1017.07 1017.10 1017.06 1017.01 1016.92 1016.82 1016.84
1008.77 1009.66 1009.59 1008.39 1007.21 1005.06 1003.29 1002.11 1001.57 1001.56 1001.94 1002.32 1003.49 1006.02 1007.32 1006.76 1004.77 1005.96 1007.21 1008.16 1009.06 1009.54 1010.42 1011.37 1011.62 1011.89 1012.38 1012.88 1013.18 1013.52 1013.88 1014.32 1014.65 1015.01 1015.38 1015.64 1015.90 1016.18 1016.42 1016.63 1016.73 1016.78 1016.90 1016.95 1016.88 1016.92 1016.73 1016.64 1016.76
1008.24 1009.20 1009.30 1008.10 1006.50 1005.07 1003.38 1002.99 1001.72 1001.21 1001.90 1002.45 1003.85 1004.96 1004.92 1005.41 1005.10 1005.59 1007.08 1008.30 1008.84 1009.97 1010.14 1011.15 1011.64 1012.19 1012.38 1012.64 1013.14 1013.59 1013.86 1014.27 1014.75 1015.09 1015.40 1015.70 1015.91 1016.08 1016.34 1016.45 1016.49 1016.54 1016.64 1016.68 1016.61 1016.78 1016.73 1016.37 1016.40
1008.39 1008.69 1008.27 1006.82 1006.15 1005.68 1004.12 1003.52 1002.74 1002.23 1002.35 1002.96 1004.25 1005.10 1005.14 1005.48 1005.67 1005.77 1006.58 1008.05 1008.54 1009.47 1010.32 1010.41 1011.06 1011.54 1012.26 1012.71 1013.29 1013.85 1014.14 1014.31 1014.60 1015.04 1015.33 1015.59 1015.73 1015.88 1015.97 1016.08 1016.07 1016.22 1016.42 1016.44 1016.43 1016.66 1016.82 1016.57 1016.10
1008.09 1008.15 1007.43 1006.01 1005.69 1005.04 1004.16 1003.80 1003.39 1003.18 1003.10 1003.28 1004.76 1005.66 1005.60 1005.59 1005.55 1005.89 1006.09 1006.72 1007.89 1009.22 1010.50 1011.06 1011.37 1011.37 1011.54 1012.23 1013.20 1013.81 1014.41 1014.78 1014.96 1014.92 1015.24 1015.37 1015.44 1015.67 1015.71 1015.79 1015.87 1016.06 1016.14 1016.10 1016.27 1016.57 1016.60 1016.70 1016.55
1007.77 1007.13 1006.61 1005.45 1004.90 1004.63 1004.23 1003.75 1003.84 1003.71 1003.58 1003.18 1004.11 1004.85 1005.38 1005.51 1005.29 1005.37 1005.89 1006.39 1007.49 1008.60 1009.61 1010.86 1011.75 1011.84 1011.63 1011.86 1012.52 1013.19 1013.94 1014.47 1014.69 1014.82 1014.97 1015.18 1015.28 1015.47 1015.48 1015.54 1015.62 1015.91 1016.05 1016.01 1016.07 1016.36 1016.30 1016.38 1016.22
1007.44 1006.81 1005.92 1005.11 1004.57 1004.35 1004.00 1004.03 1004.02 1003.97 1003.59 1003.33 1003.67 1004.70 1005.14 1005.02 1004.87 1004.73 1005.66 1007.54 1008.93 1009.65 1009.65 1010.20 1010.82 1011.55 1011.40 1011.73 1012.14 1012.46 1013.01 1013.72 1014.07 1014.33 1014.44 1014.79 1014.78 1015.17 1015.06 1015.29 1015.38 1015.62 1015.65 1015.76 1016.14 1016.11 1016.26 1015.81 1015.93
1006.83 1006.41 1005.74 1005.22 1004.60 1004.14 1004.11 1004.07 1004.03 1004.03 1003.65 1003.75 1003.39 1003.95 1004.45 1004.49 1004.20 1004.43 1005.56 1007.60 1009.50 1009.94 1010.21 1009.94 1010.05 1010.54 1011.15 1011.02 1011.56 1011.91 1012.25 1012.66 1013.39 1013.84 1013.82 1014.22 1014.20 1014.43 1014.55 1014.67 1014.89 1015.03 1015.03 1015.27 1015.63 1015.89 1015.69 1015.91 1015.98
1006.84 1006.82 1005.83 1005.12 1004.63 1004.15 1004.09 1004.08 1004.16 1003.96 1003.94 1003.96 1003.76 1003.66 1003.81 1004.20 1004.15 1006.12 1006.82 1007.74 1009.17 1009.78 1010.87 1010.71 1009.90 1010.13 1010.35 1010.28 1010.69 1011.60 1011.87 1011.96 1012.55 1013.11 1013.44 1013.63 1013.74 1013.87 1014.13 1014.48 1014.45 1014.22 1014.53 1014.58 1014.86 1015.28 1015.46 1015.70 1015.57
1007.81 1007.18 1006.61 1005.55 1004.69 1004.00 1004.22 1003.99 1003.79 1003.61 1003.76 1003.98 1003.65 1003.62 1003.93 1005.10 1005.30 1005.73 1007.60 1008.39 1009.28 1010.14 1009.71 1010.02 1011.14 1010.93 1010.11 1009.37 1009.97 1010.87 1011.51 1011.61 1011.83 1012.39 1012.74 1013.00 1013.21 1013.22 1013.69 1014.29 1014.49 1014.24 1014.33 1014.45 1014.68 1015.12 1015.48 1015.72 1015.88
1008.39 1007.88 1007.06 1005.69 1004.17 1003.68 1003.73 1003.76 1003.66 1003.18 1003.51 1003.64 1003.58 1003.66 1004.48 1005.45 1006.07 1005.77 1005.81 1006.73 1008.16 1008.27 1009.66 1011.22 1010.89 1009.99 1009.87 1009.39 1009.28 1010.10 1010.66 1010.89 1011.26 1011.74 1012.22 1012.57 1012.88 1013.04 1013.37 1014.03 1014.31 1014.43 1014.40 1014.62 1014.82 1015.04 1015.22 1015.89 1015.92
1008.49 1007.69 1006.57 1005.50 1004.06 1003.56 1003.41 1003.41 1003.37 1003.03 1003.06 1002.93 1003.58 1003.92 1005.28 1006.00 1006.44 1006.24 1006.42 1006.17 1006.25 1006.96 1007.75 1008.52 1008.48 1009.69 1009.45 1009.43 1009.61 1010.09 1010.65 1010.89 1010.95 1011.66 1011.94 1012.31 1012.52 1012.81 1013.20 1013.44 1013.73 1014.15 1014.65 1014.43 1014.68 1014.87 1015.10 1015.34 1015.71
1007.88 1007.26 1006.35 1005.12 1004.00 1003.71 1002.66 1003.24 1003.22 1002.91 1003.17 1003.22 1003.54 1004.14 1005.69 1006.17 1006.25 1006.17 1006.56 1006.96 1007.23 1007.42 1007.23 1007.36 1008.22 1009.02 1009.18 1009.52 1010.01 1010.50 1010.85 1011.25 1011.33 1011.71 1011.68 1011.98 1012.21 1012.45 1012.74 1013.18 1013.59 1013.91 1014.46 1014.37 1014.63 1014.96 1015.09 1015.49 1015.56
1007.00 1006.63 1005.94 1004.90 1003.91 1004.06 1003.79 1003.66 1003.19 1003.08 1003.21 1003.46 1003.58 1004.39 1005.75 1006.41 1006.70 1006.88 1006.99 1007.30 1007.61 1007.71 1007.70 1008.00 1008.30 1008.67 1008.94 1009.33 1010.00 1010.37 1010.81 1011.11 1011.32 1011.61 1011.59 1011.75 1011.99 1012.18 1012.43 1012.99 1013.44 1013.97 1014.44 1014.39 1014.72 1014.92 1015.34 1015.51 1015.50
1006.21 1006.05 1005.64 1005.20 1004.34 1004.09 1004.31 1004.33 1003.94 1003.29 1003.22 1003.49 1004.05 1003.92 1005.62 1006.43 1006.94 1007.14 1007.54 1007.89 1008.22 1008.73 1009.11 1009.00 1008.85 1008.92 1009.10 1009.64 1010.01 1010.43 1010.78 1011.19 1011.43 1011.53 1011.63 1011.61 1011.75 1012.02 1012.24 1012.58 1013.14 1013.75 1014.18 1014.38 1014.56 1014.68 1015.12 1015.40 1015.26
1005.39 1005.24 1005.16 1005.22 1005.39 1005.26 1005.25 1005.45 1004.93 1004.11 1003.95 1004.10 1004.70 1004.87 1005.66 1006.58 1007.34 1007.79 1008.19 1008.54 1008.89 1009.33 1010.04 1010.27 1010.11 1010.04 1009.63 1009.59 1010.08 1010.51 1010.88 1011.35 1011.26 1011.27 1011.35 1011.40 1011.51 1011.51 1011.97 1012.48 1012.71 1013.20 1013.73 1013.87 1014.07 1014.28 1014.53 1014.98 1015.48
1004.69 1004.93 1005.17 1005.56 1006.03 1006.39 1006.08 1006.48 1005.88 1005.18 1005.05 1004.90 1004.95 1005.17 1005.92 1006.61 1007.34 1008.20 1008.80 1009.26 1009.54 1009.88 1010.95 1011.42 1011.08 1010.77 1010.60 1010.74 1010.60 1010.83 1011.09 1011.12 1011.11 1011.18 1011.32 1011.76 1011.42 1011.43 1012.20 1012.29 1012.52 1013.06 1013.37 1013.65 1013.71 1013.86 1014.13 1014.50 1015.00
1004.77 1004.94 1005.27 1005.89 1006.78 1007.25 1007.25 1007.47 1007.32 1007.27 1006.48 1005.41 1005.21 1005.58 1006.19 1007.04 1007.73 1008.35 1009.04 1009.70 1010.36 1010.79 1011.68 1012.17 1011.99 1011.79 1011.55 1011.43 1011.50 1011.62 1011.82 1011.78 1011.60 1011.59 1011.67 1011.80 1011.76 1011.94 1011.75 1011.77 1012.51 1012.80 1013.19 1013.38 1013.47 1013.37 1013.64 1013.98 1014.36
1005.88 1005.80 1006.80 1007.76 1008.13 1007.73 1007.96 1008.51 1009.40 1009.38 1008.81 1005.68 1005.71 1006.49 1007.03 1007.37 1008.16 1008.96 1009.71 1010.37 1010.97 1011.86 1012.51 1012.82 1012.43 1012.41 1012.38 1012.20 1012.14 1012.22 1012.24 1012.32 1012.28 1012.25 1012.15 1011.98 1011.99 1011.97 1011.82 1011.83 1012.04 1012.17 1012.37 1012.64 1013.01 1013.20 1013.33 1013.52 1013.85
1008.03 1008.70 1008.81 1008.72 1009.57 1009.23 1009.34 1009.54 1010.50 1010.90 1010.22 1009.80 1009.58 1008.99 1008.54 1009.02 1009.29 1009.70 1009.95 1010.42 1011.77 1012.74 1013.21 1013.35 1012.98 1012.92 1012.82 1012.76 1012.76 1012.65 1012.70 1012.66 1012.70 1012.66 1012.40 1012.24 1011.98 1011.91 1011.75 1011.66 1011.80 1011.90 1011.92 1012.34 1012.55 1012.99 1013.11 1013.25 1013.41
1008.70 1010.06 1010.63 1010.53 1010.39 1010.56 1010.39 1010.17 1010.78 1010.86 1011.18 1012.59 1012.64 1012.58 1012.61 1011.32 1010.73 1010.91 1010.35 1011.02 1012.03 1013.18 1013.56 1013.66 1013.52 1013.31 1013.28 1013.27 1013.26 1013.17 1013.04 1012.95 1012.89 1012.60 1012.43 1012.21 1011.94 1011.72 1011.43 1011.31 1011.43 1011.46 1011.60 1011.92 1012.33 1012.64 1012.92 1013.22 1013.43
1010.80 1010.95 1012.60 1012.81 1013.02 1012.76 1011.72 1011.47 1011.80 1012.65 1013.67 1014.04 1014.56 1015.08 1015.00 1014.98 1013.45 1013.23 1011.02 1012.28 1012.18 1013.43 1013.74 1013.70 1013.97 1014.03 1013.73 1013.56 1013.49 1013.45 1013.37 1013.27 1013.12 1012.90 1012.64 1012.41 1012.04 1011.83 1011.52 1011.55 1011.42 1011.35 1011.47 1011.60 1011.99 1012.36 1012.60 1013.05 1013.36
1012.46 1012.42 1013.55 1014.21 1014.49 1014.16 1013.41 1013.34 1012.60 1012.84 1013.96 1015.22 1016.14 1016.75 1016.43 1017.12 1015.98 1014.80 1013.01 1012.38 1012.78 1013.71 1014.24 1014.32 1014.28 1014.36 1014.25 1013.98 1013.86 1013.75 1013.61 1013.47 1013.31 1013.16 1012.85 1012.49 1012.18 1011.89 1011.90 1011.71 1011.52 1011.63 1011.60 1011.66 1011.88 1012.29 1012.36 1012.80 1013.07
1014.22 1014.73 1015.17 1015.98 1015.23 1014.84 1014.15 1014.24 1013.58 1013.56 1013.91 1015.05 1015.83 1016.51 1017.03 1017.83 1016.22 1016.30 1013.29 1014.13 1013.91 1014.23 1014.62 1014.99 1015.16 1015.01 1014.75 1014.39 1014.20 1014.19 1013.93 1013.68 1013.54 1013.36 1013.06 1012.78 1012.55 1012.34 1012.02 1011.79 1011.68 1011.84 1011.82 1011.90 1011.97 1012.36 1012.48 1012.76 1012.89
Wind_Speed
6 7 4 1 4 2 4 7 16 13 5 3 7 11 11 5 3 5 7 18 22 17 15 16 21 19 17 18 19 18 17 16 14 12 12 11 10 10 9 8 8 8 8 8 8 7 7 6 5
5 6 1 3 2 2 6 7 7 17 2 13 20 20 7 5 2 4 4 14 21 17 14 15 21 19 18 16 16 17 17 15 15 14 12 10 10 9 8 7 7 6 7 7 6 6 5 4 3
4 3 3 3 4 9 5 6 9 10 2 4 8 8 7 3 5 3 15 18 19 15 14 16 23 22 18 17 16 15 15 15 14 13 13 11 9 8 7 6 6 5 6 6 5 5 4 3 2
3 4 5 2 11 19 9 9 4 2 4 6 16 13 8 12 15 9 18 20 18 13 11 19 21 21 21 19 17 17 16 15 14 13 12 10 9 8 7 6 5 4 5 5 5 5 4 3 4
2 2 1 4 11 15 15 7 6 3 1 5 13 14 16 8 15 9 19 20 20 14 11 14 22 22 21 20 19 17 17 15 14 13 12 10 9 7 6 6 4 3 3 4 4 4 4 5 6
3 3 3 6 11 11 12 10 8 4 2 7 19 10 7 6 7 5 17 19 21 17 14 12 17 22 22 21 20 18 17 16 15 13 12 10 9 7 5 4 4 3 2 2 2 3 5 6 7
5 2 8 10 13 12 9 7 8 7 6 4 9 9 5 12 6 2 6 18 19 19 15 11 12 15 19 19 19 19 17 16 15 14 13 11 10 8 7 5 4 4 2 2 3 5 6 8 8
4 3 9 8 9 14 8 3 5 7 5 8 8 7 7 7 8 10 2 17 16 16 16 12 11 12 12 12 18 18 18 17 16 15 14 12 11 9 8 7 7 6 5 5 6 7 9 9 9
5 2 6 11 9 11 8 9 4 1 5 6 5 8 9 10 8 7 5 17 16 14 17 14 12 9 9 11 13 16 18 17 15 13 12 9 4 6 7 8 10 10 8 7 8 7 9 12 10
3 2 9 13 11 8 9 10 10 7 5 4 6 7 1 11 5 2 13 18 17 18 16 15 14 13 11 10 8 6 8 7 7 7 7 5 6 6 9 10 13 13 10 10 10 8 7 10 6
8 8 10 18 12 8 8 9 7 9 4 5 8 9 9 5 5 7 11 13 20 17 12 14 13 12 13 9 6 3 3 3 3 7 6 6 5 4 5 5 5 4 8 4 5 3 4 5 5
6 11 10 16 11 8 6 4 10 5 6 6 15 17 12 12 11 10 13 14 17 21 19 17 13 12 11 9 9 8 6 5 5 6 8 6 4 4 4 4 5 4 4 6 4 3 5 5 5
6 11 11 12 12 7 5 5 5 9 11 9 2 15 18 17 13 8 8 13 15 11 6 16 18 15 11 14 9 9 9 8 8 8 9 7 5 5 5 5 5 5 5 5 3 4 5 3 4
8 10 10 9 11 6 4 6 2 7 10 9 10 6 8 11 14 11 12 19 28 9 16 15 19 18 12 12 12 10 9 11 9 8 9 11 6 5 4 4 5 5 6 5 6 6 4 2 3
9 10 13 12 7 6 6 6 7 9 9 10 12 8 5 3 5 16 17 21 27 23 23 7 13 18 16 16 12 8 6 10 9 9 10 11 8 6 5 4 4 4 5 8 6 4 3 3 2
9 8 5 9 11 11 7 10 7 11 9 11 10 8 6 8 7 9 20 20 14 8 6 6 13 13 9 11 9 8 9 5 7 8 9 13 9 8 6 4 3 3 3 4 5 4 3 2 2
5 8 12 14 12 11 13 9 9 12 6 11 8 6 2 7 9 5 6 11 18 20 16 17 19 15 8 6 6 6 5 5 4 5 7 12 10 8 5 3 3 2 4 3 4 2 4 3 2
8 7 10 12 13 9 12 8 8 10 7 11 8 5 9 10 8 7 7 5 7 3 5 17 9 8 7 4 4 4 2 1 2 4 5 8 8 7 6 5 6 3 4 3 3 4 2 4 3
13 17 17 16 17 11 11 8 7 9 2 6 7 5 13 12 7 8 9 7 7 7 9 3 10 9 6 3 4 2 3 1 1 3 4 8 8 8 8 5 5 3 5 5 5 3 4 1 3
12 15 15 15 16 5 6 6 7 5 3 8 10 9 14 9 9 9 9 9 8 7 7 9 3 8 6 5 3 3 3 3 3 3 4 5 7 7 7 6 5 3 3 2 3 3 2 2 3
13 9 10 9 12 7 7 5 6 4 7 5 3 12 11 12 10 11 12 9 12 16 16 13 7 3 6 7 3 2 1 1 1 2 3 5 7 5 6 7 6 4 4 4 5 6 6 5 4
7 10 13 10 6 9 2 6 6 6 12 8 8 16 14 14 14 13 11 11 15 16 15 13 12 12 2 5 2 2 3 4 4 3 4 4 7 8 7 6 7 7 5 5 6 6 5 4 4
17 10 11 7 6 2 12 1 8 6 9 10 10 11 13 18 18 16 14 14 15 17 12 8 9 13 13 13 6 1 2 2 2 2 5 6 6 4 5 6 6 5 5 5 7 6 6 4 4
18 14 9 4 3 7 5 6 7 9 6 5 9 18 20 18 18 17 15 16 14 13 9 8 11 10 10 12 11 10 9 7 5 5 3 3 3 5 7 7 5 6 6 6 6 7 7 6 5
19 3 5 7 3 7 7 4 6 16 25 3 17 16 18 16 16 17 17 14 13 10 8 7 9 10 9 13 12 10 9 9 7 6 4 5 1 3 7 8 8 7 8 6 5 6 6 8 5
8 5 5 6 6 3 6 2 2 10 19 26 29 13 14 10 13 14 15 16 11 8 7 6 8 8 8 9 9 8 7 6 5 5 4 3 3 3 8 10 8 7 7 6 6 3 4 5 6
6 5 9 9 4 4 4 4 1 16 22 22 25 26 21 8 8 9 16 14 10 7 6 6 6 7 7 7 7 7 5 5 5 6 5 5 5 5 6 10 9 8 7 7 6 4 4 3 2
1 1 4 7 1 4 3 1 7 1 8 13 21 19 22 23 16 6 12 10 10 8 7 9 8 6 6 6 6 5 6 6 6 5 5 5 5 6 6 5 5 5 5 6 6 4 4 4 3
7 5 3 5 3 2 4 1 6 5 8 7 8 9 14 19 8 12 10 13 13 9 8 9 9 7 8 7 6 6 5 5 6 6 6 5 5 7 6 5 4 2 2 3 4 5 5 4 5
10 3 4 2 5 6 4 0 3 9 10 12 6 3 7 6 13 16 12 9 10 10 9 9 8 8 8 7 7 6 7 5 5 6 7 7 4 3 4 3 4 5 4 5 4 4 3 4 5
Wind_Direction
289 263 166 342 42 70 278 180 247 313 68 31 104 104 122 147 141 105 101 118 126 134 140 135 134 136 138 134 134 132 130 127 123 114 107 101 98 94 89 83 81 78 76 75 73 64 57 46 31
316 312 226 243 131 292 273 243 90 288 38 110 99 124 79 74 358 305 104 135 134 137 139 138 136 136 137 134 134 135 134 131 129 124 118 111 107 102 95 90 85 81 75 67 62 62 57 46 20
295 232 72 157 217 238 249 246 222 204 188 348 82 59 95 250 356 269 144 141 129 137 140 145 141 138 138 137 137 138 136 134 131 129 127 125 119 112 105 93 82 76 68 58 51 47 53 43 5
309 355 333 119 253 267 229 206 204 16 97 25 133 106 85 285 152 183 143 136 127 133 140 144 142 140 141 143 143 143 141 139 137 136 134 133 129 125 118 105 92 73 65 54 37 28 10 3 328
294 318 256 266 255 261 266 214 138 150 183 99 92 129 154 168 252 172 152 137 135 129 139 147 146 146 146 148 149 149 146 144 144 143 144 140 136 134 130 125 114 91 60 44 36 357 341 330 312
317 112 350 265 269 275 283 165 160 140 53 60 103 103 121 220 211 138 155 146 142 134 142 149 151 149 150 153 153 152 149 148 148 149 148 146 148 149 151 145 138 128 79 11 342 315 304 295 288
193 56 251 271 285 300 294 151 157 157 114 73 137 94 166 185 133 88 188 150 131 135 136 147 152 154 153 156 156 154 154 153 152 154 156 159 160 163 169 173 175 180 177 243 272 268 267 271 283
191 119 294 280 283 284 319 72 109 87 73 141 126 152 186 219 157 120 199 130 137 136 143 151 153 154 156 161 161 159 159 159 159 160 164 166 168 173 180 186 201 205 204 229 243 259 274 278 286
290 345 262 270 281 295 339 11 17 46 91 86 116 150 205 176 237 111 125 139 138 144 149 153 156 160 160 160 168 164 164 162 162 164 168 167 170 186 193 198 209 208 207 222 246 256 280 293 282
180 197 239 251 270 317 333 18 338 36 29 61 69 37 249 180 199 146 163 159 157 155 162 158 161 162 158 166 160 161 172 164 157 161 170 179 196 188 200 206 214 203 205 216 236 253 274 294 297
251 231 258 276 278 290 322 348 330 337 13 309 166 182 206 226 244 224 169 171 164 152 156 164 164 169 163 156 150 144 148 161 180 170 176 206 206 213 203 197 194 198 215 221 222 241 242 237 271
253 259 236 265 279 307 315 338 324 0 288 318 150 175 188 215 228 206 186 183 147 154 158 164 165 174 178 146 162 163 167 180 183 191 183 198 205 206 175 181 192 188 207 230 206 198 234 234 215
253 254 255 253 277 266 309 293 267 311 308 330 68 176 191 199 210 210 154 106 62 27 149 170 165 182 184 160 171 171 176 183 192 196 188 201 205 214 182 186 193 191 195 209 181 217 204 98 357
271 299 290 288 273 278 248 257 284 280 297 299 300 266 198 194 201 213 110 122 109 87 295 192 176 183 170 169 171 179 178 183 187 194 194 199 198 198 210 200 187 196 209 169 161 174 124 115 111
301 306 298 292 272 260 283 278 246 239 244 260 252 247 272 359 74 85 109 127 152 169 213 302 185 188 174 167 169 183 191 183 183 189 191 196 195 196 204 222 239 226 162 153 131 129 136 143 162
333 310 291 281 264 266 186 253 228 260 219 247 246 207 219 73 98 120 125 122 147 178 222 317 279 202 187 158 148 160 196 197 183 177 183 195 195 173 190 200 227 260 168 156 139 144 150 208 200
287 264 276 278 242 242 200 237 242 253 216 223 215 168 219 91 97 77 82 134 159 157 169 201 228 186 184 156 141 155 161 155 178 176 173 193 193 187 158 175 240 272 206 157 165 177 141 159 221
263 252 255 251 274 247 232 206 234 254 291 202 162 170 91 101 109 134 104 70 39 59 186 163 144 188 161 135 122 127 151 189 179 206 174 181 186 177 158 177 220 238 217 182 188 171 167 148 169
253 273 282 289 289 317 171 179 236 252 236 137 151 177 120 113 106 82 100 119 80 48 40 140 136 177 160 119 122 123 172 195 286 232 226 190 179 171 180 190 195 225 231 212 197 160 138 151 137
258 258 274 283 285 307 298 234 218 273 266 200 176 172 137 125 116 102 88 77 81 55 31 50 91 139 163 157 140 135 154 205 193 200 175 151 179 171 177 174 189 212 231 179 165 148 112 184 168
261 270 272 263 307 318 319 294 221 239 299 272 98 115 123 133 124 105 93 78 70 57 36 19 36 21 149 149 152 169 155 303 206 211 190 181 170 168 169 172 165 185 199 199 189 173 167 196 233
244 256 273 273 287 285 59 284 277 220 245 264 144 117 127 108 96 84 74 69 70 65 44 26 33 26 4 163 146 139 185 185 230 201 205 185 178 187 172 177 190 189 206 212 189 189 182 147 207
274 233 259 277 259 268 278 266 271 269 244 232 163 136 113 113 107 94 80 82 82 69 52 17 33 39 36 34 9 56 244 270 280 274 203 166 206 167 200 196 186 212 212 218 192 185 193 184 176
282 274 257 275 237 264 237 208 275 276 275 179 148 125 118 114 108 102 89 80 74 76 63 33 47 40 38 41 37 44 41 12 1 346 12 183 210 191 193 200 203 208 215 223 206 199 190 192 204
346 263 284 255 287 223 228 252 82 9 0 239 135 118 114 114 111 104 98 88 78 62 76 64 49 40 44 49 37 39 40 32 16 6 359 3 175 224 225 215 204 205 205 200 194 207 195 197 202
323 46 266 217 216 271 355 319 59 45 25 21 31 26 73 69 84 109 111 99 96 98 108 101 85 72 57 56 40 39 36 32 24 1 351 351 323 240 220 215 218 209 205 214 198 207 198 189 211
280 307 319 295 138 66 217 226 69 26 35 28 23 28 9 27 74 68 107 118 115 102 103 100 87 91 85 77 56 40 33 34 13 355 3 0 350 328 313 206 203 202 188 198 189 172 179 169 206
260 272 10 359 82 222 224 118 229 2 59 33 34 22 13 9 20 354 71 86 88 70 41 50 50 44 52 71 63 56 34 23 9 360 350 348 339 329 322 325 211 190 183 165 163 165 169 201 218
345 15 16 179 116 301 313 129 306 337 113 78 74 30 28 327 27 350 38 58 65 59 50 24 24 34 27 41 36 39 24 21 14 3 340 332 348 344 324 290 350 259 169 191 186 210 188 207 230
110 19 69 320 315 236 214 211 114 129 147 145 158 207 143 287 335 315 33 39 48 49 36 21 12 19 14 9 19 12 355 5 16 2 353 345 334 341 4 2 293 278 241 230 206 218 224 246 234